HULIANWANG DIGUI-108 (66918 NORAD) Tracking and Keplerian Element Data

This shows tracking and keplerian element data for the satellite.

Feedback or suggestion? Click here.




ElementValue
Catalog66918
NameHULIANWANG DIGUI-108
Epoch Orbit196
Epoch Day354.24343078
Epoch Year2025
RAAN86.6637
Inclination50.0046
Eccentricity0.0006607
Argument of Perigee305.0306
Mean Anonmoly54.9978
Mean Motion14.03601705
Decay Rate-9E-08
L11 66918U 25285D 25354.24343078 -.00000009 00000+0 90006-4 0 9990
L22 66918 50.0046 86.6637 0006607 305.0306 54.9978 14.03601705 1964



Live tracking and technical data element details for HULIANWANG DIGUI-108 (NORAD 66918). HULIANWANG DIGUI-108 can be tracked NOW for your location showing map with azimuth and elevation plus other details from your city location.







IsCatalogInMostPopularTable: catalog: 66918, numindb: 15
Update: records affected: 1



GetName: 66918 HULIANWANG DIGUI-108

Hit Count: updated at: Tue, 21 Apr 2026 20:24:31 GMT